星链-30290 (STARLINK-30290 )

导读

STARLINK-30290是美国太空探索技术公司(SpaceX)旗下星链(Starlink)互联网星座的卫星之一,于2023年9月12日发射。星链项目旨在构建全球卫星互联网,为全球偏远地区、海洋航运等提供宽带接入服务,该卫星的入轨进一步扩充了星链星座的服务能力与覆盖范围。

基本信息
目录编号:
57858
目录名称:
STARLINK-30290
国际标识:
2023-141U
轨道中心:
EARTH
卫星名称:
星链-30290
卫星全名:
星链-30290 (STARLINK-30290 )
卫星状态:
在轨 (已飞行1088 天)
发射日期:
2023-09-12 UTC
国别 :
美国 (US)
星等 :
--
轨道信息
数据来源 国际轨道数据 AOE轨道数据
星历时间 2026-09-04T03:03:38+0800
12小时前
查看轨道信息
2026-08-29T22:00:00+0800
5天前
查看轨道信息
半长轴 6840.878km 6840.853km
偏心率 0.0001384 0.0001437
轨道倾角 53.160° 53.157°
近地点辐角 80.298° 67.328°
升交点赤经 175.641° 199.999°
平近点角 279.818° 292.966°
近地点 461.794km 461.732km
远地点 463.688km 463.7km
周期 93.849分钟 93.848分钟
每日圈数 15.343875 15.343959
详细信息
固有亮度:
5
最大亮度:
0.3
卫星平台:
Starlink v2.0 mini
覆盖范围:
全球
运营商:
太空探索技术公司
运营商所在国:
美国
制造商(研发单位):
太空探索技术公司
制造商所在国:
美国
使用方式:
暂无
卫星简介
星链(Starlink)计划是由太空探索技术公司(SpaceX)提出的一个巨型低轨卫星互联网星座项目,计划在2019年至2024年间在太空搭建由约1.2万颗卫星组成的“星链”网络,其中1584颗将部署在地球上空550千米处的近地轨道,并从2020年开始工作。该卫星仍在工作。
2D轨道图
3D轨道图
轨道高度分析图
轨道倾角分析图
轨道综合分析图
查看轨道综合分析图